Weather History for KXNA - March, 2014

Change the Weather History Date:

Monday, March 10, 2014

  Actual Average Record
Temperature  
Mean Temperature 54 °F -  
Max Temperature 73 °F - - ()
Min Temperature 37 °F - - ()
Degree Days  
Heating Degree Days 10    
Growing Degree Days 4 (Base 50)    
Moisture  
Dew Point 36 °F    
Average Humidity 72    
Maximum Humidity 100    
Minimum Humidity 20    
Precipitation  
Precipitation 0.00 in - - ()
Sea Level Pressure  
Sea Level Pressure 29.99 in    
Wind  
Wind Speed 8 mph (SSW)    
Max Wind Speed 22 mph    
Max Gust Speed 29 mph    
Visibility 6 miles    
Events Fog    
T = Trace of Precipitation, MM = Missing Value Source: NWS Daily Summary

Daily Weather History Graph

Daily Weather History Graph

Search for Another Location

Airport or City:

Trip Planner

Search our weather history database for the weather conditions in past years. The results will help you decide how hot, cold, wet, or windy it might be!

Date:

Astronomy

Mar. 10, 2014 Rise Set
Actual Time 7:35 AM CDT 7:20 PM CDT
Civil Twilight 7:09 AM CDT 7:45 PM CDT
Nautical Twilight 6:39 AM CDT 8:15 PM CDT
Astronomical Twilight 6:09 AM CDT 8:45 PM CDT
Moon 2:11 PM CDT (3/10) 3:40 AM CDT (3/10)
Length of Visible Light 12h 36m
Length of Day
11h 45m
Waxing Gibbous, 70% of the Moon is Illuminated
Mar 10
Waxing Gibbous
Mar 16
Full
Mar 23
Last Quarter
Mar 30
New
Apr 7
First Quarter

Hourly Weather History & Observations

Time (CDT) Temp. Windchill Dew Point Humidity Pressure Visibility Wind Dir Wind Speed Gust Speed Precip Events Conditions
12:46 AM 39.2 °F 35.0 °F 37.4 °F 93% 30.11 in 2.5 mi SSW 5.8 mph - N/A   Clear
12:53 AM 37.9 °F 33.5 °F 37.0 °F 97% 30.12 in 2.5 mi SSW 5.8 mph - N/A   Clear
1:26 AM 37.4 °F 32.1 °F 37.4 °F 100% 30.10 in 1.8 mi SSW 6.9 mph - N/A   Clear
1:50 AM 37.4 °F 32.8 °F 37.4 °F 100% 30.10 in 0.8 mi SSW 5.8 mph - N/A   Mist
1:53 AM 37.0 °F 32.4 °F 37.0 °F 100% 30.11 in 0.8 mi SSW 5.8 mph - N/A   Mist
2:03 AM 37.4 °F 33.8 °F 37.4 °F 100% 30.10 in 0.5 mi SSW 4.6 mph - N/A Fog Fog
2:14 AM 37.4 °F 32.8 °F 37.4 °F 100% 30.10 in 0.2 mi SSW 5.8 mph - N/A Fog Fog
2:29 AM 37.4 °F 32.1 °F 35.6 °F 93% 30.09 in 0.5 mi SSW 6.9 mph - N/A Fog Fog
2:40 AM 37.4 °F 31.4 °F 37.4 °F 100% 30.08 in 1.2 mi SSW 8.1 mph - N/A   Scattered Clouds
2:49 AM 37.4 °F 32.8 °F 37.4 °F 100% 30.08 in 2.5 mi SSW 5.8 mph - N/A   Partly Cloudy
2:53 AM 37.9 °F 33.5 °F 37.0 °F 97% 30.08 in 2.5 mi SSW 5.8 mph - N/A   Partly Cloudy
3:53 AM 39.9 °F 33.9 °F 37.9 °F 93% 30.06 in 4.0 mi SW 9.2 mph - N/A   Clear
4:53 AM 41.0 °F 35.8 °F 39.0 °F 93% 30.04 in 5.0 mi SW 8.1 mph - N/A   Clear
5:53 AM 39.9 °F 34.5 °F 39.0 °F 97% 30.04 in 4.0 mi SW 8.1 mph - N/A   Clear
6:53 AM 39.0 °F 33.4 °F 37.9 °F 96% 30.04 in 4.0 mi SSW 8.1 mph - N/A   Clear
7:43 AM 39.2 °F 33.6 °F 37.4 °F 93% 30.03 in 2.0 mi SSW 8.1 mph - N/A   Clear
7:53 AM 37.9 °F 33.5 °F 37.9 °F 100% 30.04 in 1.8 mi SSW 5.8 mph - N/A   Clear
8:20 AM 39.2 °F 35.0 °F 39.2 °F 100% 30.03 in 2.0 mi SSW 5.8 mph - N/A   Clear
8:43 AM 42.8 °F 38.6 °F 39.2 °F 87% 30.03 in 3.0 mi SSW 6.9 mph - N/A   Clear
8:53 AM 43.0 °F 37.2 °F 41.0 °F 93% 30.04 in 4.0 mi SSW 10.4 mph - N/A   Clear
9:53 AM 48.0 °F - 42.1 °F 80% 30.02 in 8.0 mi SW 15.0 mph 19.6 mph N/A   Clear
10:53 AM 54.0 °F - 42.1 °F 64% 30.01 in 10.0 mi SW 15.0 mph 21.9 mph N/A   Clear
11:53 AM 60.1 °F - 37.9 °F 44% 29.99 in 10.0 mi SW 15.0 mph - N/A   Clear
12:53 PM 64.0 °F - 37.0 °F 37% 29.96 in 10.0 mi SW 16.1 mph - N/A   Clear
1:53 PM 66.9 °F - 37.0 °F 33% 29.92 in 10.0 mi SW 11.5 mph 19.6 mph N/A   Clear
2:53 PM 70.0 °F - 35.1 °F 28% 29.88 in 10.0 mi WSW 15.0 mph 24.2 mph N/A   Clear
3:53 PM 71.1 °F - 30.0 °F 22% 29.85 in 10.0 mi SW 21.9 mph 28.8 mph N/A   Clear
4:53 PM 72.0 °F - 28.9 °F 20% 29.83 in 10.0 mi SW 10.4 mph 20.7 mph N/A   Clear
5:53 PM 70.0 °F - 28.9 °F 22% 29.81 in 10.0 mi SSW 16.1 mph - N/A   Clear
6:53 PM 66.9 °F - 28.9 °F 24% 29.83 in 10.0 mi SW 12.7 mph - N/A   Clear
7:53 PM 62.1 °F - 30.9 °F 31% 29.83 in 10.0 mi SSW 6.9 mph - N/A   Clear
8:53 PM 57.9 °F - 30.9 °F 36% 29.84 in 10.0 mi SSW 5.8 mph - N/A   Clear
9:53 PM 54.0 °F - 32.0 °F 43% 29.83 in 10.0 mi South 8.1 mph - N/A   Clear
10:53 PM 53.1 °F - 33.1 °F 47% 29.82 in 10.0 mi SSW 5.8 mph - N/A   Clear
11:53 PM 51.1 °F - 36.0 °F 56% 29.80 in 10.0 mi SSW 8.1 mph - N/A   Clear